Regional Weather Roundup
Issued by NWS

Home | Current Version | Previous Version | Graphics & Text | Print | Product List | Glossary Off
Versions: 1 2 3 4 5 6 7 8 9 10 11 12 13 14 15 16 17 18 19 20 21 22 23 24 25 26 27 28 29 30 31 32 33 34 35 36 37 38 39 40 41 42 43 44 45 46 47 48 49 50

000
ASUS43 KMKX 291411
RWRWI

WISCONSIN REGIONAL WEATHER ROUNDUP
NATIONAL WEATHER SERVICE MILWAUKEE/SULLIVAN WI
900 AM CDT SAT APR 29 2017

NOTE: "FAIR" INDICATES FEW OR NO CLOUDS BELOW 12,000 FEET WITH NO
SIGNIFICANT WEATHER AND/OR OBSTRUCTIONS TO VISIBILITY.

WIZ001-002-006>008-014>016-023>028-291500-
NORTHWEST WISCONSIN

CITY           SKY/WX    TMP DP  RH WIND       PRES   REMARKS
SUPERIOR ARPT  SUNNY     40  27  60 CALM      30.35R
ASHLAND        SUNNY     39  29  67 E3        30.34F
HAYWARD        SUNNY     41  25  53 E9        30.32R
SIREN          SUNNY     40  26  56 CALM      30.34R
CUMBERLAND     MOSUNNY   37  27  65 E8        30.30F WCI  31
RICE LAKE      MOSUNNY   38  27  63 NE8       30.33S WCI  32
CHETEK         MOSUNNY   38  27  62 NE10      30.31  WCI  31
LADYSMITH      MOSUNNY   39  26  61 E7        30.32F WCI  34
EAU CLAIRE     CLOUDY    41  23  48 E15       30.28S
MENOMONIE      PTSUNNY   41  25  51 NE13      30.30S
NEW RICHMOND   PTSUNNY   39  25  56 E9        30.31S WCI  33
OSCEOLA        CLOUDY    40  27  58 E6        30.35R
$$

WIZ003>005-009-010-017-018-291500-
NORTH CENTRAL WISCONSIN

CITY           SKY/WX    TMP DP  RH WIND       PRES   REMARKS
MANITOWISH WTR SUNNY     37  22  56 NE10      30.29S WCI  29
ARBOR VITAE    SUNNY     37  22  54 E7        30.29R WCI  31
WOODRUFF       SUNNY     37  22  54 E7        30.29R WCI  31
RHINELANDER    SUNNY     38  22  52 E12G18    30.29F WCI  30
EAGLE RIVER    SUNNY     37  20  50 E12       30.29S WCI  29
LAND O LAKES   SUNNY     37  19  48 NE8       30.31S WCI  30
PHILLIPS       MOSUNNY   37  26  63 NE6G16    30.30R WCI  32
TOMAHAWK       SUNNY     37  24  58 NE8       30.29S WCI  31
MEDFORD        SUNNY     37  24  59 NE13      30.27S WCI  29
MERRILL        SUNNY     39  24  55 E14       30.29R WCI  31
$$

WIZ029-030-035-036-043>047-291500-
CENTRAL WISCONSIN

CITY           SKY/WX    TMP DP  RH WIND       PRES   REMARKS
WAUSAU         CLOUDY    39  24  55 NE10      30.28R WCI  32
MOSINEE        MOSUNNY   37  27  65 NE13G20   30.29R WCI  29
MARSHFIELD     SUNNY     38  24  57 NE15G23   30.27R WCI  29
STEVENS POINT  MOSUNNY   37  23  56 NE14G20   30.30R WCI  29
WAUPACA        CLOUDY    42  27  56 N9        30.29R
WAUTOMA        CLOUDY    40  27  59 N14G23    30.28R WCI  32
WISC RAPIDS    CLOUDY    40  24  53 E14G23    30.29R WCI  32
CAMP DOUGLAS   PTSUNNY   41  27  56 NE10      30.26R
$$

WIZ011>013-019>022-031-037>040-048>050-291500-
NORTHEAST WISCONSIN

CITY           SKY/WX    TMP DP  RH WIND       PRES   REMARKS
ANTIGO         CLOUDY    37  25  62 NE14      30.29R WCI  28
SHAWANO        CLOUDY    42  28  57 NE16      30.29S
OCONTO         CLOUDY    40  26  57 N12G20    30.29  WCI  33
STURGEON BAY   MOSUNNY   39  27  62 N16G25    30.29R WCI  30
GREEN BAY      SUNNY     42  29  59 NE17G23   30.29R
MANITOWOC      MOSUNNY   41  26  55 NE15      30.28R
APPLETON       NOT AVBL
CLINTONVILLE   CLOUDY    41  25  52 NE15G22   30.29R
OSHKOSH        CLOUDY    40  29  64 NE14G21   30.26R WCI  32
$$

WIZ032>034-041-042-053>061-291500-
SOUTHWEST WISCONSIN

CITY           SKY/WX    TMP DP  RH WIND       PRES   REMARKS
LA CROSSE      CLOUDY    43  27  53 E12       30.27R
SPARTA         CLOUDY    41  29  62 NE8G17    30.27S
VIROQUA        CLOUDY    39  29  68 NE16      30.23F WCI  30
BOSCOBEL       CLOUDY    44  30  57 NE10G21   30.23R
PRAIRIE DU CHI CLOUDY    44  32  62 NE8       30.23R
PLATTEVILLE    CLOUDY    44  36  73 NE20      30.19R
$$

WIZ056-057-062-063-064-067-068-291500-
SOUTH CENTRAL WISCONSIN

CITY           SKY/WX    TMP DP  RH WIND       PRES   REMARKS
REEDSBURG      CLOUDY    39  28  63 NE12      30.24S WCI  32
BARABOO/DELLS  CLOUDY    39  28  63 E15       30.24S WCI  31
LONE ROCK      CLOUDY    43  31  62 NE10      30.23R
MINERAL POINT  CLOUDY    45  34  65 NE16      30.19R
MADISON        CLOUDY    41  32  70 NE16      30.22S
MIDDLETON      CLOUDY    42  33  69 NE15G21   30.23S
WATERTOWN      CLOUDY    41  32  69 NE14      30.22S
MONROE         CLOUDY    43  34  70 NE16      30.17S
JANESVILLE     SUNNY     46  36  66 NE14      30.18S
$$

WIZ051-052-058>065-066-070>072-291500-
SOUTHEAST WISCONSIN

CITY           SKY/WX    TMP DP  RH WIND       PRES   REMARKS
MILWAUKEE      CLOUDY    41  33  73 N21G28    30.22R
WAUKESHA       SUNNY     39  28  65 NE15      30.23R WCI  31
MILWAUKEE/TIMM SUNNY     41  28  60 NE21G28   30.24R
RACINE         CLOUDY    41  33  73 N23G31    30.23R
KENOSHA        CLOUDY    42  34  73 NE17G26   30.20R
FOND DU LAC    CLOUDY    42  27  55 NE18      30.26S
SHEBOYGAN      MOSUNNY   41  33  73 NE21      30.26F
WEST BEND      MOSUNNY   39  32  75 NE12      30.24F WCI  32
JUNEAU         CLOUDY    39  28  63 NE12G21   30.24F WCI  32
$$

LSZ147-162-291500-
LAKE SUPERIOR

STATION/POSITION TIME  TEMP    WIND        PRES    WAVE
                       AIR SEA DIR/SP/G            HT/PER
                 (UTC) (F)     (DEG/KT/KT) (MB)    (FT/S)
DEVILS ISLAND    1400   37     110/  6/  6 1028.9R
PORT WING        1240   34     130/  2/  5 1026.4
SAXON HARBOR     1330   39     360/  2/  2 1027.4S
$$

LMZ867-665-643>646-291500-
LAKE MICHIGAN

STATION/POSITION TIME  TEMP    WIND        PRES    WAVE
                       AIR SEA DIR/SP/G            HT/PER
                 (UTC) (F)     (DEG/KT/KT) (MB)    (FT/S)
CHAMBERS ISLAND  1340   38     350/ 18/ 21 1025.1F
N MID LAKE BUOY  1350   36 37  350/ 12/ 14 1026.7R   1/ 3
NORTHPORT PIER   1340   37     350/ 15/ 18 1025.4F
KEWAUNEE LAKESHO 1348   40      30/ 12/ 16 1024.7S
SHEBOYGAN LAKESH 1400   38      20/ 21/ 24 1025.1F
PORT WASHINGTON  1340   41      40/ 19/ 24 1025.1F
MILWAUKEE LAKESH 1350   39      20/ 22/ 26   N/A
S MID LAKE BUOY  1250   41 41   20/ 19/ 21 1022.1R   4/ 5
KENOSHA   LAKESH 1400   40      20/ 26/ 30 1022.4
$$

TC  - TEMPERATURE IN CELSIUS
VSB - VISIBILITY IN STATUTE MILES
WCI - WIND CHILL INDEX
HX  - HEAT INDEX




USA.gov is the U.S. government's official web portal to all federal, state and local government web resources and services.